• In Hungary
  • List of Countries
  • For 7 days
  • Water Temperature
  • Satellite Maps
  • Weather Map
  • News
  • Weather Widgets
  • user-avatar
    Login

    Hourly Weather Enbekshi

    Today, 19 October, Friday

    Time Temperature Precipitation Wind Pressure Humidity
    00:00 +2°C° 0 mm 3 mps 739 mmHg 78%
    01:00 +1°C° 0 mm 3 mps 739 mmHg 81%
    02:00 +1°C° 0 mm 3 mps 739 mmHg 83%
    03:00 +1°C° 0 mm 3 mps 739 mmHg 85%
    04:00 +1°C° 0 mm 3 mps 739 mmHg 87%
    05:00 +1°C° 0 mm 3 mps 739 mmHg 86%
    06:00 +2°C° 0 mm 3 mps 739 mmHg 84%
    07:00 +1°C° 0 mm 4 mps 739 mmHg 83%
    08:00 +2°C° 0 mm 5 mps 739 mmHg 75%
    09:00 +5°C° 0 mm 5 mps 739 mmHg 67%
    10:00 +5°C° 0 mm 6 mps 739 mmHg 60%
    11:00 +6°C° 0 mm 7 mps 739 mmHg 56%
    12:00 +9°C° 0 mm 7 mps 738 mmHg 52%
    13:00 +11°C° 0 mm 7 mps 738 mmHg 48%
    14:00 +11°C° 0 mm 7 mps 738 mmHg 50%
    15:00 +11°C° 0 mm 7 mps 738 mmHg 51%
    16:00 +11°C° 0 mm 7 mps 738 mmHg 53%
    17:00 +10°C° 0 mm 6 mps 738 mmHg 57%
    18:00 +9°C° 0 mm 6 mps 738 mmHg 61%
    19:00 +7°C° 0 mm 5 mps 738 mmHg 65%
    20:00 +7°C° 0 mm 5 mps 738 mmHg 67%
    21:00 +7°C° 0 mm 5 mps 738 mmHg 69%
    22:00 +7°C° 0 mm 5 mps 738 mmHg 71%
    23:00 +6°C° 0 mm 5 mps 738 mmHg 72%

    Tomorrow, 20 October, Saturday

    Time Temperature Precipitation Wind Pressure Humidity
    00:00 +6°C° 0 mm 5 mps 738 mmHg 74%
    01:00 +6°C° 0 mm 5 mps 738 mmHg 76%
    02:00 +6°C° 0 mm 5 mps 738 mmHg 76%
    03:00 +6°C° 0 mm 5 mps 738 mmHg 77%
    04:00 +5°C° 0 mm 5 mps 738 mmHg 78%
    05:00 +5°C° 0 mm 5 mps 738 mmHg 77%
    06:00 +5°C° 0 mm 5 mps 738 mmHg 76%
    07:00 +5°C° 0 mm 5 mps 738 mmHg 76%
    08:00 +7°C° 0 mm 6 mps 738 mmHg 68%
    09:00 +8°C° 0 mm 7 mps 738 mmHg 61%
    10:00 +9°C° 0 mm 7 mps 737 mmHg 53%
    11:00 +11°C° 0 mm 8 mps 737 mmHg 48%
    12:00 +12°C° 0 mm 8 mps 737 mmHg 43%
    13:00 +13°C° 0 mm 8 mps 737 mmHg 37%
    14:00 +13°C° 0 mm 8 mps 737 mmHg 36%
    15:00 +13°C° 0 mm 8 mps 736 mmHg 35%
    16:00 +12°C° 0 mm 7 mps 736 mmHg 35%
    17:00 +11°C° 0 mm 7 mps 736 mmHg 37%
    18:00 +11°C° 0 mm 7 mps 736 mmHg 38%
    19:00 +10°C° 0 mm 7 mps 736 mmHg 40%
    20:00 +9°C° 0 mm 7 mps 736 mmHg 40%
    21:00 +9°C° 0 mm 7 mps 736 mmHg 41%
    22:00 +9°C° 0 mm 7 mps 736 mmHg 41%
    23:00 +8°C° 0 mm 6 mps 736 mmHg 44%

    Day after tomorrow, 21 October, Sunday

    Time Temperature Precipitation Wind Pressure Humidity
    00:00 +8°C° 0 mm 6 mps 736 mmHg 48%
    01:00 +7°C° 0 mm 6 mps 735 mmHg 51%
    02:00 +7°C° 0 mm 6 mps 736 mmHg 57%
    03:00 +7°C° 0 mm 5 mps 736 mmHg 63%
    04:00 +7°C° 0 mm 5 mps 736 mmHg 69%
    05:00 +6°C° 0 mm 4 mps 736 mmHg 75%
    06:00 +5°C° 0 mm 4 mps 737 mmHg 81%
    07:00 +5°C° 0 mm 3 mps 737 mmHg 87%
    08:00 +6°C° 0 mm 4 mps 737 mmHg 80%
    09:00 +6°C° 0 mm 4 mps 738 mmHg 73%
    10:00 +7°C° 0 mm 4 mps 738 mmHg 65%
    11:00 +8°C° 0 mm 4 mps 738 mmHg 59%
    12:00 +8°C° 0 mm 4 mps 739 mmHg 54%
    13:00 +10°C° 0 mm 4 mps 739 mmHg 48%
    14:00 +10°C° 0 mm 4 mps 739 mmHg 48%
    15:00 +10°C° 0 mm 4 mps 739 mmHg 48%
    16:00 +10°C° 0 mm 4 mps 740 mmHg 48%
    17:00 +8°C° 0 mm 4 mps 740 mmHg 52%
    18:00 +8°C° 0 mm 3 mps 740 mmHg 57%
    19:00 +7°C° 0 mm 3 mps 741 mmHg 62%
    20:00 +5°C° 0 mm 3 mps 741 mmHg 65%
    21:00 +5°C° 0 mm 3 mps 741 mmHg 68%
    22:00 +4°C° 0 mm 3 mps 741 mmHg 72%
    23:00 +3°C° 0 mm 3 mps 742 mmHg 74%

    22 October, Monday

    Time Temperature Precipitation Wind Pressure Humidity
    00:00 +3°C° 0 mm 3 mps 742 mmHg 77%
    01:00 +2°C° 0 mm 3 mps 742 mmHg 79%
    02:00 +3°C° 0 mm 2 mps 742 mmHg 81%
    03:00 +2°C° 0 mm 2 mps 742 mmHg 82%
    04:00 +2°C° 0 mm 2 mps 743 mmHg 84%
    05:00 +2°C° 0 mm 2 mps 743 mmHg 85%
    06:00 +1°C° 0 mm 2 mps 743 mmHg 86%
    07:00 +1°C° 0 mm 2 mps 743 mmHg 87%
    08:00 +2°C° 0 mm 2 mps 743 mmHg 80%
    09:00 +3°C° 0 mm 2 mps 743 mmHg 73%
    10:00 +4°C° 0 mm 2 mps 744 mmHg 67%
    11:00 +5°C° 0 mm 2 mps 744 mmHg 63%
    12:00 +6°C° 0 mm 1 mps 744 mmHg 58%
    13:00 +7°C° 0 mm 1 mps 744 mmHg 54%
    14:00 +7°C° 0 mm 1 mps 744 mmHg 53%
    15:00 +7°C° 0 mm 1 mps 744 mmHg 52%
    16:00 +6°C° 0 mm 2 mps 743 mmHg 51%
    17:00 +5°C° 0 mm 2 mps 744 mmHg 53%
    18:00 +4°C° 0 mm 2 mps 744 mmHg 55%
    19:00 +3°C° 0 mm 2 mps 744 mmHg 58%
    20:00 +3°C° 0 mm 2 mps 744 mmHg 58%
    21:00 +2°C° 0 mm 2 mps 745 mmHg 58%
    22:00 +2°C° 0 mm 2 mps 745 mmHg 58%
    23:00 +1°C° 0 mm 2 mps 745 mmHg 59%

    23 October, Tuesday

    Time Temperature Precipitation Wind Pressure Humidity
    00:00 +1°C° 0 mm 2 mps 745 mmHg 59%
    01:00 +1°C° 0 mm 2 mps 745 mmHg 60%
    02:00 -1°C° 0 mm 2 mps 745 mmHg 61%
    03:00 -1°C° 0 mm 2 mps 745 mmHg 62%
    04:00 -1°C° 0 mm 2 mps 745 mmHg 62%
    05:00 -1°C° 0 mm 2 mps 745 mmHg 63%
    06:00 -1°C° 0 mm 2 mps 745 mmHg 63%
    07:00 -1°C° 0 mm 2 mps 745 mmHg 64%
    08:00 +1°C° 0 mm 2 mps 745 mmHg 59%
    09:00 +2°C° 0 mm 2 mps 745 mmHg 54%
    10:00 +3°C° 0 mm 3 mps 745 mmHg 49%
    11:00 +4°C° 0 mm 3 mps 745 mmHg 47%
    12:00 +5°C° 0 mm 3 mps 745 mmHg 45%
    13:00 +7°C° 0 mm 3 mps 745 mmHg 43%
    14:00 +7°C° 0 mm 3 mps 745 mmHg 44%
    15:00 +5°C° 0 mm 3 mps 745 mmHg 44%
    16:00 +6°C° 0 mm 2 mps 744 mmHg 45%
    17:00 +5°C° 0 mm 3 mps 744 mmHg 48%
    18:00 +4°C° 0 mm 3 mps 744 mmHg 52%
    19:00 +3°C° 0 mm 3 mps 744 mmHg 55%
    20:00 +3°C° 0 mm 3 mps 744 mmHg 56%
    21:00 +2°C° 0 mm 3 mps 744 mmHg 58%
    22:00 +2°C° 0 mm 3 mps 744 mmHg 59%
    23:00 +2°C° 0 mm 3 mps 744 mmHg 59%

    24 October, Wednesday

    Time Temperature Precipitation Wind Pressure Humidity
    00:00 +2°C° 0 mm 3 mps 744 mmHg 60%
    01:00 +2°C° 0 mm 3 mps 744 mmHg 60%
    02:00 0°C° 0 mm 4 mps 744 mmHg 61%
    03:00 0°C° 0 mm 4 mps 744 mmHg 61%
    04:00 0°C° 0 mm 4 mps 743 mmHg 62%
    05:00 0°C° 0 mm 4 mps 743 mmHg 62%
    06:00 0°C° 0 mm 4 mps 743 mmHg 63%
    07:00 0°C° 0 mm 4 mps 743 mmHg 63%
    08:00 +1°C° 0 mm 4 mps 743 mmHg 58%
    09:00 +3°C° 0 mm 5 mps 743 mmHg 53%
    10:00 +5°C° 0 mm 5 mps 742 mmHg 48%
    11:00 +6°C° 0 mm 5 mps 742 mmHg 45%
    12:00 +7°C° 0 mm 6 mps 742 mmHg 42%
    13:00 +9°C° 0 mm 6 mps 741 mmHg 40%
    14:00 +8°C° 0 mm 5 mps 741 mmHg 39%
    15:00 +8°C° 0 mm 5 mps 740 mmHg 38%
    16:00 +8°C° 0 mm 5 mps 740 mmHg 38%
    17:00 +7°C° 0 mm 5 mps 740 mmHg 38%
    18:00 +6°C° 0 mm 5 mps 739 mmHg 39%
    19:00 +6°C° 0 mm 5 mps 739 mmHg 39%
    20:00 +6°C° 0 mm 5 mps 739 mmHg 39%
    21:00 +5°C° 0 mm 6 mps 739 mmHg 40%
    22:00 +5°C° 0 mm 6 mps 738 mmHg 40%
    23:00 +4°C° 0 mm 6 mps 738 mmHg 42%
    Show more